GW5761 Weather Reports


time (UTC)temp
F
wind
direction
speed
knots
gust
knots
rain 1hr
in
rain 24hr
in
rain mn
in
humidity
%
barometer
mb
20260509222825 82 115 0.0 7.8 0.00 0.32 0.32 72 1010.4
20260509222320 81 234 1.7 3.5 0.00 0.32 0.32 75 1010.2
20260509221816 82 102 3.5 3.5 0.00 0.32 0.32 73 1010.3
20260509221314 84 95 2.6 8.7 0.00 0.32 0.32 70 1010.3
20260509220813 83 307 0.9 5.2 0.00 0.32 0.32 71 1010.4
20260509220310 83 93 3.5 5.2 0.00 0.32 0.32 71 1010.3
20260509215806 83 87 5.2 5.2 0.00 0.32 0.32 71 1010.3
20260509215305 81 227 2.6 3.5 0.00 0.32 0.32 75 1010.3
20260509214759 80 109 2.6 7.0 0.00 0.32 0.32 76 1010.4
20260509214256 81 101 1.7 7.0 0.00 0.32 0.32 75 1010.3
20260509213753 81 133 3.5 7.8 0.00 0.32 0.32 74 1010.3
20260509213249 82 109 1.7 7.0 0.00 0.32 0.32 71 1010.5
20260509212746 84 300 2.6 7.8 0.00 0.32 0.32 69 1010.6
20260509212244 83 291 2.6 3.5 0.00 0.32 0.32 70 1010.6
20260509211739 84 148 0.9 7.0 0.00 0.32 0.32 69 1010.7
20260509211236 83 95 2.6 4.3 0.00 0.32 0.32 72 1010.6
20260509210732 83 253 1.7 3.5 0.00 0.32 0.32 71 1010.7
20260509210231 83 265 1.7 2.6 0.00 0.32 0.32 72 1010.7
20260509205730 82 276 1.7 6.1 0.00 0.32 0.32 73 1010.7
20260509205229 83 6 1.7 5.2 0.00 0.32 0.32 71 1010.7
20260509204726 83 289 0.9 4.3 0.00 0.32 0.32 70 1010.8
20260509204222 86 171 1.7 4.3 0.00 0.32 0.32 66 1010.9
20260509203718 85 140 0.9 3.5 0.00 0.32 0.32 68 1011.0
20260509203217 83 80 2.6 7.0 0.00 0.32 0.32 72 1011.1
20260509202712 82 159 2.6 7.8 0.00 0.32 0.32 73 1010.9
20260509202207 81 140 4.3 5.2 0.00 0.32 0.32 74 1011.1
20260509201702 83 105 2.6 5.2 0.00 0.32 0.32 70 1011.1
20260509201200 84 94 4.3 5.2 0.00 0.32 0.32 70 1011.1
20260509200656 86 113 3.5 5.2 0.00 0.32 0.32 66 1011.1
20260509200151 83 280 2.6 4.3 0.00 0.32 0.32 71 1011.1
20260509195648 82 245 1.7 3.5 0.00 0.32 0.32 72 1011.4
20260509195143 82 140 1.7 3.5 0.00 0.32 0.32 74 1011.6
20260509194642 83 94 3.5 5.2 0.00 0.32 0.32 71 1011.4
20260509194140 85 71 0.0 3.5 0.00 0.32 0.32 66 1011.7
20260509193636 86 218 2.6 2.6 0.00 0.32 0.32 65 1011.5
20260509193131 85 285 3.5 4.3 0.00 0.32 0.32 66 1011.7
20260509192628 86 299 2.6 3.5 0.00 0.32 0.32 65 1011.7
20260509192124 87 283 1.7 7.0 0.00 0.32 0.32 64 1011.7
20260509191623 85 265 0.0 2.6 0.00 0.32 0.32 67 1011.7
20260509191120 83 185 1.7 2.6 0.00 0.32 0.32 71 1011.8
20260509190617 82 202 0.0 3.5 0.00 0.32 0.32 73 1012.0
20260509190114 81 175 1.7 3.5 0.00 0.32 0.32 76 1011.9
20260509185612 81 129 1.7 2.6 0.00 0.32 0.32 76 1012.1
20260509185108 80 287 0.0 0.9 0.00 0.32 0.32 78 1012.0
20260509184606 79 251 0.9 5.2 0.00 0.32 0.32 79 1012.0
20260509184102 79 252 1.7 4.3 0.00 0.32 0.32 80 1012.2
20260509183558 78 198 3.5 5.2 0.00 0.32 0.32 80 1012.2
20260509183054 79 102 0.9 1.7 0.00 0.32 0.32 80 1012.2
20260509182550 78 111 0.0 4.3 0.00 0.32 0.32 81 1012.1
20260509182047 77 219 1.7 2.6 0.00 0.32 0.32 82 1012.2
20260509181546 77 91 3.5 3.5 0.00 0.32 0.32 83 1012.4
20260509181042 77 218 0.9 1.7 0.00 0.32 0.32 83 1012.2
20260509180538 77 309 0.0 0.9 0.00 0.32 0.32 84 1012.3
20260509180036 76 255 1.7 3.5 0.00 0.32 0.32 84 1012.4
20260509175531 77 200 0.9 1.7 0.00 0.32 0.32 84 1012.6
20260509175028 76 175 0.9 3.5 0.00 0.32 0.32 84 1012.6
20260509174524 76 233 2.6 3.5 0.00 0.32 0.32 84 1012.5
20260509174020 77 87 1.7 3.5 0.00 0.32 0.32 82 1012.5
20260509173514 78 135 0.0 2.6 0.00 0.32 0.32 83 1012.6
20260509173011 77 173 1.7 4.3 0.00 0.32 0.32 84 1012.7
20260509172508 77 241 2.6 2.6 0.00 0.32 0.32 84 1012.5
20260509172003 76 103 2.6 3.5 0.00 0.32 0.32 86 1012.6
20260509171500 76 171 2.6 3.5 0.00 0.32 0.32 85 1012.7
20260509170956 76 265 0.0 1.7 0.00 0.32 0.32 86 1012.8
20260509170452 75 174 0.9 1.7 0.00 0.32 0.32 89 1012.8
20260509165948 74 79 1.7 4.3 0.00 0.32 0.32 90 1012.8
20260509165447 74 125 2.6 3.5 0.00 0.32 0.32 89 1012.6
20260509164943 74 100 1.7 4.3 0.00 0.32 0.32 89 1012.7
20260509164439 74 175 1.7 2.6 0.00 0.32 0.32 89 1012.7
20260509163935 73 59 0.0 3.5 0.00 0.32 0.32 91 1012.8
20260509163433 73 168 3.5 3.5 0.00 0.32 0.32 91 1012.8
20260509162931 73 225 0.9 4.3 0.00 0.32 0.32 90 1012.7
20260509162431 73 135 3.5 4.3 0.00 0.32 0.32 90 1012.5
20260509161926 73 150 2.6 3.5 0.00 0.32 0.32 89 1012.7
20260509161422 73 136 1.7 2.6 0.00 0.32 0.32 91 1012.7
20260509160918 73 146 1.7 2.6 0.00 0.32 0.32 91 1012.7
20260509160414 73 124 1.7 4.3 0.00 0.32 0.32 90 1012.7
20260509155909 73 141 0.9 2.6 0.00 0.32 0.32 91 1012.6
20260509155406 72 132 2.6 3.5 0.00 0.32 0.32 92 1012.6
20260509154903 72 132 2.6 2.6 0.00 0.32 0.32 93 1012.8
20260509154359 72 209 1.7 2.6 0.00 0.32 0.32 93 1012.6
20260509153856 71 122 0.9 2.6 0.00 0.32 0.32 94 1012.3
20260509153353 71 103 1.7 2.6 0.00 0.32 0.32 94 1012.3
20260509152850 71 93 0.0 1.7 0.00 0.32 0.32 96 1012.5
20260509152345 71 101 0.9 2.6 0.00 0.32 0.32 96 1012.4
20260509151843 70 205 0.9 1.7 0.00 0.32 0.32 96 1012.4
20260509151339 70 102 2.6 3.5 0.00 0.32 0.32 97 1012.3
20260509150838 70 238 0.9 2.6 0.00 0.32 0.32 97 1012.3
20260509150335 70 119 0.0 0.9 0.00 0.32 0.32 97 1012.4
20260509145832 69 85 1.7 1.7 0.00 0.32 0.32 98 1012.4
20260509145327 69 100 2.6 2.6 0.00 0.32 0.32 97 1012.4
20260509144823 69 131 1.7 2.6 0.00 0.32 0.32 98 1012.5
20260509144320 69 111 1.7 2.6 0.00 0.32 0.32 97 1012.5
20260509143817 69 94 1.7 2.6 0.00 0.32 0.32 98 1012.4
20260509143315 69 140 1.7 2.6 0.00 0.32 0.32 98 1012.7
20260509142811 69 120 0.0 3.5 0.00 0.32 0.32 98 1012.7
20260509142307 69 96 2.6 3.5 0.00 0.32 0.32 98 1012.7
20260509141802 69 118 1.7 4.3 0.00 0.32 0.32 98 1012.5
20260509141300 69 160 0.9 4.3 0.00 0.32 0.32 98 1012.5
20260509140756 68 135 3.5 4.3 0.00 0.32 0.32 98 1012.5
20260509140253 68 114 0.9 2.6 0.00 0.32 0.32 98 1012.6
20260509135752 68 134 0.0 0.9 0.00 0.32 0.32 98 1012.9
20260509135249 68 87 0.9 2.6 0.00 0.32 0.32 98 1012.9
20260509134746 68 146 0.9 1.7 0.00 0.32 0.32 98 1012.7
20260509134243 68 87 0.9 2.6 0.00 0.32 0.32 98 1012.8
20260509133740 68 51 0.0 0.9 0.00 0.32 0.32 98 1012.7
20260509133237 68 49 0.0 0.9 0.00 0.32 0.32 98 1012.9
20260509132736 68 269 0.0 1.7 0.00 0.32 0.32 98 1012.9
20260509132234 68 146 1.7 1.7 0.00 0.32 0.32 98 1012.7
20260509131730 68 122 0.9 3.5 0.00 0.32 0.32 98 1012.8
20260509131227 68 17 0.0 2.6 0.00 0.32 0.32 98 1012.6
20260509130722 68 153 3.5 3.5 0.00 0.32 0.32 98 1012.7
20260509130218 68 132 2.6 3.5 0.00 0.32 0.32 98 1012.7
20260509125715 68 130 0.0 2.6 0.00 0.32 0.32 98 1012.8
20260509125213 68 92 2.6 3.5 0.00 0.32 0.32 98 1012.7
20260509124709 68 81 1.7 1.7 0.00 0.32 0.32 98 1012.6
20260509124205 68 130 0.0 3.5 0.00 0.32 0.32 98 1012.6
20260509123704 68 101 1.7 3.5 0.00 0.32 0.32 97 1012.4
20260509123200 68 82 2.6 2.6 0.00 0.32 0.32 98 1012.0
20260509122656 68 96 1.7 2.6 0.00 0.32 0.32 98 1012.3
20260509122153 68 101 2.6 2.6 0.00 0.32 0.32 98 1012.3
20260509121649 68 353 0.0 2.6 0.00 0.32 0.32 98 1012.1
20260509121148 67 166 0.0 3.5 0.00 0.32 0.32 97 1011.9
20260509120646 68 178 0.9 4.3 0.00 0.32 0.32 97 1011.9
20260509120143 68 119 1.7 4.3 0.00 0.32 0.32 97 1012.1
20260509115640 68 70 4.3 5.2 0.00 0.32 0.32 98 1012.1
20260509115138 68 92 4.3 5.2 0.00 0.32 0.32 97 1011.9
20260509114636 68 91 5.2 7.0 0.00 0.32 0.32 97 1012.1
20260509114135 68 67 1.7 1.7 0.00 0.32 0.32 97 1012.0
20260509113633 68 85 4.3 4.3 0.00 0.32 0.32 97 1011.9
20260509113130 68 121 1.7 2.6 0.00 0.32 0.32 97 1011.8
20260509112626 68 85 3.5 4.3 0.00 0.32 0.32 97 1011.5
20260509112123 68 78 2.6 5.2 0.00 0.32 0.32 97 1011.7
20260509111620 68 101 3.5 4.3 0.00 0.32 0.32 97 1011.8
20260509111117 68 17 0.9 1.7 0.00 0.32 0.32 97 1011.7
20260509110614 68 95 2.6 2.6 0.00 0.32 0.32 97 1011.3
20260509110111 68 89 0.9 1.7 0.00 0.32 0.32 97 1011.2
20260509105609 68 144 0.9 2.6 0.00 0.32 0.32 97 1011.2
20260509105107 68 117 1.7 5.2 0.00 0.32 0.32 97 1011.3
20260509104603 68 124 1.7 3.5 0.00 0.32 0.32 97 1011.1
20260509104100 68 142 1.7 1.7 0.00 0.32 0.32 97 1011.4
20260509103558 68 127 1.7 2.6 0.00 0.32 0.32 97 1011.3
20260509103056 68 129 0.9 3.5 0.00 0.32 0.32 97 1011.2
20260509102553 68 142 2.6 3.5 0.00 0.32 0.32 97 1011.4
20260509102050 68 132 0.0 2.6 0.00 0.32 0.32 97 1011.2
20260509101546 68 130 0.9 2.6 0.00 0.32 0.32 97 1011.2
20260509101043 68 137 1.7 3.5 0.00 0.32 0.32 97 1011.3
20260509100540 68 126 1.7 2.6 0.00 0.32 0.32 97 1011.3
20260509100038 68 135 0.0 2.6 0.00 0.32 0.32 97 1011.4
20260509095534 68 147 1.7 2.6 0.00 0.32 0.32 97 1011.3
20260509095032 68 128 1.7 1.7 0.00 0.32 0.32 97 1011.2
20260509094527 68 129 0.0 1.7 0.00 0.32 0.32 96 1011.1
20260509094025 68 139 1.7 2.6 0.00 0.32 0.32 96 1011.0
20260509093523 68 121 0.0 0.9 0.00 0.32 0.32 96 1011.0
20260509093021 68 98 0.0 0.9 0.00 0.32 0.32 96 1011.0
20260509092518 68 230 0.0 1.7 0.00 0.32 0.32 96 1011.1
20260509092017 68 238 1.7 2.6 0.00 0.32 0.32 96 1011.1
20260509091514 68 272 1.7 2.6 0.00 0.32 0.32 96 1011.2
20260509091010 68 87 1.7 2.6 0.00 0.32 0.32 96 1011.1
20260509090508 68 251 1.7 2.6 0.00 0.32 0.32 96 1011.2
20260509090005 68 234 2.6 3.5 0.00 0.32 0.32 96 1011.2
20260509085502 67 228 0.9 3.5 0.00 0.32 0.32 95 1011.3
20260509084958 67 214 1.7 1.7 0.00 0.32 0.32 95 1011.5
20260509084455 67 238 1.7 2.6 0.00 0.32 0.32 95 1011.2
20260509083952 67 343 1.7 2.6 0.00 0.32 0.32 95 1011.3
20260509083450 67 265 0.9 3.5 0.00 0.32 0.32 94 1011.2
20260509082946 67 226 2.6 3.5 0.00 0.32 0.32 94 1011.4
20260509082443 68 235 1.7 4.3 0.00 0.32 0.32 93 1011.3
20260509081940 68 278 3.5 5.2 0.00 0.32 0.32 94 1011.4
20260509081438 67 122 0.9 3.5 0.00 0.32 0.32 94 1011.3
20260509080935 67 260 1.7 2.6 0.00 0.32 0.32 94 1011.4
20260509080433 67 339 0.9 3.5 0.00 0.32 0.32 94 1011.2
20260509075931 67 234 1.7 4.3 0.00 0.32 0.32 94 1011.1
20260509075427 67 229 5.2 5.2 0.00 0.32 0.32 95 1010.9
20260509074926 67 241 2.6 3.5 0.00 0.32 0.32 95 1011.2
20260509074423 67 247 6.1 6.1 0.00 0.32 0.32 96 1011.2
20260509073919 68 226 1.7 2.6 0.00 0.32 0.32 96 1011.4
20260509073415 68 289 0.9 3.5 0.00 0.32 0.32 96 1011.5
20260509072912 68 200 0.9 4.3 0.00 0.32 0.32 96 1011.5
20260509072408 68 237 2.6 4.3 0.00 0.32 0.32 96 1011.4
20260509071905 68 138 1.7 2.6 0.00 0.32 0.32 96 1011.3
20260509071402 68 132 4.3 7.0 0.00 0.32 0.32 96 1011.6
20260509070900 68 351 0.0 5.2 0.09 0.32 0.32 96 1011.6
20260509070356 68 125 4.3 5.2 0.09 0.31 0.31 96 1011.2
20260509065852 68 195 1.7 12.2 0.02 0.30 0.30 96 1011.2
20260509065349 68 131 3.5 7.8 0.00 0.29 0.29 96 1011.0
20260509064844 68 205 3.5 7.0 0.02 0.29 0.29 96 1011.5
20260509064342 68 216 4.3 7.8 0.12 0.29 0.29 95 1011.0
20260509063840 68 158 2.6 5.2 0.19 0.29 0.29 95 1010.7
20260509063336 68 148 4.3 6.1 0.19 0.27 0.27 95 1011.8
20260509062833 69 182 2.6 4.3 0.26 0.25 0.25 94 1012.6
20260509062330 68 172 0.9 2.6 0.40 0.23 0.23 94 1013.2
20260509061827 68 9 0.9 2.6 0.97 0.20 0.20 93 1013.7
20260509061325 69 110 0.0 2.6 1.04 0.17 0.17 92 1013.7
20260509060822 69 10 4.3 7.0 0.38 0.06 0.06 90 1013.9
20260509060319 70 60 1.7 7.0 0.00 0.00 0.00 89 1014.0
20260509055814 70 144 1.7 6.1 0.00 0.00 0.00 89 1013.8
20260509055310 70 110 1.7 1.7 0.00 0.00 0.00 90 1013.5
20260509054807 70 159 0.9 2.6 0.00 0.00 0.00 90 1013.1
20260509054304 70 191 0.9 2.6 0.00 0.00 0.00 90 1013.1
20260509053802 70 147 1.7 1.7 0.00 0.00 0.00 90 1013.3
20260509053259 70 223 1.7 1.7 0.00 0.00 0.00 90 1013.1
20260509052757 70 233 0.9 1.7 0.00 0.00 0.00 90 1013.3
20260509052254 70 141 0.0 3.5 0.00 0.00 0.00 90 1013.1
20260509051752 69 149 1.7 2.6 0.00 0.00 0.00 90 1013.2
20260509051250 69 147 3.5 4.3 0.00 0.00 0.00 90 1012.9
20260509050746 69 214 1.7 2.6 0.00 0.00 0.00 90 1012.7
20260509050242 69 158 2.6 4.3 0.00 0.00 0.00 89 1012.9
20260509045740 69 154 1.7 2.6 0.00 0.03 0.03 89 1012.6
20260509045236 69 128 2.6 4.3 0.00 0.03 0.03 89 1012.8
20260509044734 69 130 2.6 5.2 0.00 0.03 0.03 89 1012.9
20260509044232 69 155 2.6 5.2 0.00 0.03 0.03 89 1012.8
20260509043727 69 133 0.9 2.6 0.00 0.03 0.03 89 1012.7
20260509043224 69 122 3.5 4.3 0.00 0.03 0.03 88 1012.7
20260509042720 69 125 3.5 4.3 0.00 0.03 0.03 88 1012.8
20260509042216 69 150 5.2 5.2 0.00 0.03 0.03 88 1012.6
20260509041713 69 185 1.7 5.2 0.00 0.03 0.03 87 1012.7
20260509041210 69 159 1.7 3.5 0.00 0.03 0.03 87 1012.5
20260509040709 69 71 3.5 5.2 0.00 0.03 0.03 86 1012.3
20260509040205 69 117 3.5 5.2 0.00 0.03 0.03 86 1012.5
20260509035702 69 101 1.7 4.3 0.00 0.03 0.03 86 1012.6
20260509035159 69 132 4.3 7.0 0.00 0.03 0.03 85 1012.3
20260509034656 69 144 2.6 3.5 0.00 0.03 0.03 84 1012.4
20260509034153 69 138 2.6 4.3 0.00 0.03 0.03 83 1012.3
20260509033650 69 144 2.6 3.5 0.00 0.03 0.03 83 1012.4
20260509033147 69 127 2.6 4.3 0.00 0.03 0.03 83 1012.4
20260509032645 69 144 3.5 3.5 0.00 0.03 0.03 83 1012.3
20260509032141 69 189 1.7 1.7 0.00 0.03 0.03 83 1012.2
20260509031639 69 123 1.7 2.6 0.00 0.03 0.03 82 1012.3
20260509031136 69 123 1.7 2.6 0.00 0.03 0.03 82 1012.2
20260509030635 69 109 2.6 2.6 0.00 0.03 0.03 82 1012.1
20260509030131 69 119 1.7 2.6 0.00 0.03 0.03 82 1011.9
20260509025627 69 141 0.9 2.6 0.00 0.03 0.03 82 1011.8
20260509025123 69 86 1.7 2.6 0.00 0.03 0.03 82 1011.7
20260509024619 69 89 1.7 2.6 0.00 0.03 0.03 82 1011.7
20260509024115 69 135 1.7 3.5 0.00 0.03 0.03 81 1011.5
20260509023613 69 178 0.9 2.6 0.00 0.03 0.03 81 1011.5
20260509023110 69 147 1.7 2.6 0.00 0.03 0.03 80 1011.4
20260509022606 69 138 1.7 2.6 0.00 0.03 0.03 79 1011.2
20260509022104 70 175 1.7 2.6 0.00 0.03 0.03 78 1011.3
20260509021601 70 127 0.9 2.6 0.00 0.03 0.03 78 1011.4
20260509021058 70 122 1.7 3.5 0.00 0.03 0.03 77 1011.1
20260509020556 70 76 0.0 3.5 0.00 0.03 0.03 77 1011.0
20260509020053 70 68 1.7 2.6 0.00 0.03 0.03 76 1011.1
20260509015552 71 116 1.7 4.3 0.00 0.03 0.03 76 1011.2
20260509015049 71 76 1.7 3.5 0.00 0.03 0.03 75 1010.9
20260509014545 71 140 1.7 4.3 0.00 0.03 0.03 75 1010.8
20260509014042 71 135 1.7 3.5 0.00 0.03 0.03 75 1011.0
20260509013539 71 143 1.7 2.6 0.00 0.03 0.03 74 1010.8
20260509013034 71 156 1.7 3.5 0.00 0.03 0.03 73 1010.8
20260509012531 71 121 2.6 3.5 0.00 0.03 0.03 73 1011.0
20260509012028 71 94 2.6 3.5 0.00 0.03 0.03 73 1010.9
20260509011526 72 148 2.6 3.5 0.00 0.03 0.03 72 1010.8
20260509011023 72 130 3.5 3.5 0.00 0.03 0.03 71 1010.8
20260509010521 72 166 1.7 2.6 0.00 0.03 0.03 70 1010.9
20260509010017 72 178 0.9 1.7 0.00 0.03 0.03 70 1010.8
20260509005515 73 136 1.7 1.7 0.00 0.03 0.03 69 1010.8
20260509005015 73 217 0.9 1.7 0.00 0.03 0.03 68 1010.7
20260509004512 73 157 0.0 1.7 0.00 0.03 0.03 68 1010.7
20260509004009 73 142 3.5 7.0 0.00 0.03 0.03 68 1010.5
20260509003508 74 203 4.3 10.4 0.00 0.03 0.03 67 1010.3
20260509003004 74 212 6.1 7.8 0.00 0.03 0.03 67 1010.1
20260509002502 74 141 4.3 8.7 0.00 0.03 0.03 67 1010.0
20260509001959 75 127 4.3 7.0 0.00 0.03 0.03 66 1010.0
20260509001455 75 144 7.8 10.4 0.00 0.03 0.03 66 1009.9
20260509000952 75 168 3.5 8.7 0.00 0.03 0.03 66 1009.7
20260509000451 75 161 4.3 6.1 0.00 0.03 0.03 65 1009.7
20260508235946 75 152 6.1 7.8 0.00 0.03 0.03 63 1009.7
20260508235444 75 145 5.2 10.4 0.00 0.03 0.03 61 1009.6
20260508234940 76 147 4.3 7.8 0.00 0.03 0.03 60 1010.1
20260508234437 76 128 4.3 5.2 0.00 0.03 0.03 59 1010.4
20260508233935 77 137 2.6 6.1 0.00 0.03 0.03 57 1010.8
20260508233434 78 165 2.6 4.3 0.00 0.03 0.03 55 1010.9
20260508232930 79 220 0.9 5.2 0.00 0.03 0.03 53 1011.0
20260508232427 79 140 1.7 3.5 0.00 0.03 0.03 53 1011.1
20260508231925 79 175 0.9 5.2 0.00 0.03 0.03 54 1011.0
20260508231422 78 170 1.7 6.1 0.00 0.03 0.03 55 1010.8
20260508230919 78 146 2.6 6.1 0.00 0.03 0.03 55 1011.2
20260508230415 78 143 4.3 4.3 0.00 0.03 0.03 54 1011.7
20260508225912 78 161 1.7 3.5 0.00 0.03 0.03 55 1011.7
20260508225409 78 146 1.7 3.5 0.00 0.03 0.03 55 1011.7
20260508224907 78 147 1.7 4.3 0.00 0.03 0.03 55 1011.4
20260508224404 78 148 1.7 5.2 0.00 0.03 0.03 54 1011.7
20260508223901 78 147 1.7 4.3 0.00 0.03 0.03 51 1012.2
20260508223359 79 242 1.7 3.5 0.00 0.03 0.03 51 1012.1